"Pseudo-MPEC" for P20TRtc

Created 2019 Nov 13 9:07:13 UT using Find_Orb

Click here for an explanation of pseudo-MPECs

 
 Astrometry: 
     P20TRtc  C2019 11 01lj!7PE=3PE25x#9M[D(-7aOcBCAstrometryJ1[pU\-+[Jsep+4]F52
     P20TRtc  C2019 11 01#(18LmFUredacted;u'Wr$[]_,9clicku9xVKAhVA:x^here%7erF52
     P20TRtc  C2019 11 01])'2d8*hNhMZ[M3XE_forS3oNjcLexplanationNhcm;Pv3:5q\=F52
     P20TRtc KC2019 11 05.23112 02 44 45.52 -13 13 07.2    ~B56b 21.5 RoNEOCP691
     P20TRtc KC2019 11 05.25194 02 44 42.96 -13 12 46.7    ~B56b 21.1 RoNEOCP691

Station data:
(691) Steward Observatory, Kitt Peak - Spacewatch  (N31.962174 W111.600327)
   US/Arizona.  Observer J. V. Scotti. 0.9-m f/3 reflector + CCD.
(F52) Pan-STARRS 2, Haleakala  (N20.707384 W156.255910)  US/Hawaii. 1.8-m
   Ritchey-Chrétien + CCD.

Orbital elements:  P20TRtc
   Perihelion 2020 Mar 4.317430 +/- 145 TT =  7:37:05 (JD 2458912.817430)
Epoch 2019 Nov  5.0 TT = JDT 2458792.5   Earth MOID: 0.4761   Ma: 0.0266
M 311.34131748 +/- 46               (J2000 ecliptic)          AutoNEOCP
n   0.40441923 +/- 0.189            Peri.   42.80734 +/- 90
a   1.81098498 +/- 0.563            Node    65.23895 +/- 9
e   0.2193154 +/- 0.219             Incl.   24.12199 +/- 15
P   2.44/890.15d           H 20.7   G  0.15   U 11.6  SR
q 1.41380797 +/- 0.424    Q 2.20816199 +/- 3.73
From 5 observations 2019 Nov. 1-5; mean residual 0".18
Residuals in arcseconds: 
191101 F52  .07-  .28-    191101 F52  .07-  .12+    191105 691  .26+  .16+    
191101 F52  .14+  .17+    191105 691  .26-  .16-    

Ephemerides (geocentric):
Date (UTC) HH   RA              Dec         delta   r     elong  mag " sig PA
---- -- -- --  -------------   -----------  ------ ------ -----  --- ---- ---
2019 11 13 09  02 28 18.085   -10 35 58.51  .65225 1.5869 149.6 21.7 1025  42
2019 11 13 10  02 28 13.085   -10 35 03.00  .65222 1.5868 149.6 21.7 1034  42
2019 11 13 11  02 28 08.086   -10 34 07.41  .65218 1.5866 149.5 21.7 1043  42
2019 11 13 12  02 28 03.088   -10 33 11.76  .65214 1.5865 149.5 21.7 1051  42
2019 11 13 13  02 27 58.093   -10 32 16.03  .65210 1.5864 149.5 21.7 1060  42
2019 11 13 14  02 27 53.098   -10 31 20.23  .65207 1.5863 149.5 21.7 1069  42
2019 11 13 15  02 27 48.105   -10 30 24.37  .65203 1.5862 149.5 21.7 1078  42
2019 11 13 16  02 27 43.114   -10 29 28.43  .65200 1.5861 149.5 21.7 1087  42
2019 11 13 17  02 27 38.124   -10 28 32.43  .65196 1.5860 149.4 21.7 1097  42
2019 11 13 18  02 27 33.136   -10 27 36.35  .65193 1.5859 149.4 21.7 1106  42
2019 11 13 19  02 27 28.149   -10 26 40.21  .65189 1.5858 149.4 21.7 1115  42
2019 11 13 20  02 27 23.164   -10 25 43.99  .65186 1.5857 149.4 21.7 1124  42
2019 11 13 21  02 27 18.181   -10 24 47.71  .65183 1.5855 149.4 21.7 1133  42
2019 11 13 22  02 27 13.199   -10 23 51.35  .65179 1.5854 149.3 21.7 1143  42
2019 11 13 23  02 27 08.218   -10 22 54.93  .65176 1.5853 149.3 21.7 1152  42
2019 11 14 00  02 27 03.240   -10 21 58.44  .65173 1.5852 149.3 21.7 1161  42
2019 11 14 01  02 26 58.263   -10 21 01.88  .65170 1.5851 149.3 21.7 1171  42
2019 11 14 02  02 26 53.287   -10 20 05.24  .65167 1.5850 149.3 21.7 1180  42
2019 11 14 03  02 26 48.313   -10 19 08.54  .65164 1.5849 149.2 21.7 1189  42
2019 11 14 04  02 26 43.341   -10 18 11.78  .65161 1.5848 149.2 21.7 1199  42
2019 11 14 05  02 26 38.371   -10 17 14.94  .65158 1.5847 149.2 21.7 1208  42
2019 11 14 06  02 26 33.402   -10 16 18.03  .65155 1.5846 149.2 21.7 1218  42
2019 11 14 07  02 26 28.436   -10 15 21.06  .65152 1.5844 149.2 21.7 1228  42
2019 11 14 08  02 26 23.470   -10 14 24.01  .65149 1.5843 149.1 21.7 1237  42
2019 11 14 09  02 26 18.507   -10 13 26.90  .65146 1.5842 149.1 21.7 1247  42
2019 11 14 10  02 26 13.545   -10 12 29.72  .65143 1.5841 149.1 21.7 1256  42
2019 11 14 11  02 26 08.586   -10 11 32.47  .65140 1.5840 149.1 21.7 1266  42
2019 11 14 12  02 26 03.628   -10 10 35.16  .65137 1.5839 149.1 21.7 1276  42
2019 11 14 13  02 25 58.671   -10 09 37.77  .65135 1.5838 149.0 21.7 1286  42
2019 11 14 14  02 25 53.717   -10 08 40.32  .65132 1.5837 149.0 21.7 1296  42
2019 11 14 15  02 25 48.764   -10 07 42.80  .65129 1.5836 149.0 21.7 1305  42
2019 11 14 16  02 25 43.814   -10 06 45.21  .65127 1.5835 149.0 21.7 1315  42
2019 11 14 17  02 25 38.865   -10 05 47.55  .65124 1.5833 149.0 21.7 1325  42
2019 11 14 18  02 25 33.918   -10 04 49.82  .65122 1.5832 148.9 21.7 1335  42
2019 11 14 19  02 25 28.973   -10 03 52.03  .65119 1.5831 148.9 21.7 1345  42
2019 11 14 20  02 25 24.030   -10 02 54.17  .65117 1.5830 148.9 21.7 1355  42
2019 11 14 21  02 25 19.088   -10 01 56.25  .65114 1.5829 148.9 21.7 1365  42
2019 11 14 22  02 25 14.149   -10 00 58.25  .65112 1.5828 148.9 21.7 1376  42
2019 11 14 23  02 25 09.212   -10 00 00.19  .65110 1.5827 148.8 21.7 1386  42
2019 11 15 00  02 25 04.276   -09 59 02.06  .65108 1.5826 148.8 21.7 1396  42
2019 11 15 01  02 24 59.343   -09 58 03.86  .65105 1.5825 148.8 21.7 1406  42
2019 11 15 02  02 24 54.411   -09 57 05.60  .65103 1.5824 148.8 21.7 1416  42
2019 11 15 03  02 24 49.482   -09 56 07.27  .65101 1.5823 148.7 21.7 1427  42
2019 11 15 04  02 24 44.554   -09 55 08.87  .65099 1.5821 148.7 21.7 1437  43
2019 11 15 05  02 24 39.629   -09 54 10.41  .65097 1.5820 148.7 21.7 1447  43
2019 11 15 06  02 24 34.706   -09 53 11.88  .65095 1.5819 148.7 21.7 1458  43
2019 11 15 07  02 24 29.784   -09 52 13.28  .65093 1.5818 148.7 21.7 1468  43
2019 11 15 08  02 24 24.865   -09 51 14.62  .65091 1.5817 148.6 21.7 1479  43